Simultaneous Nadir Overpasses (SNOs) Predictions

Prediction of SNOs between AQUA and NOAA-19 Satellite Orbit:

Table of predicted SNOs for the next 14.0 days since TLE Epoch: 3/17/2018
Index Date (AQUA) Time (AQUA) Lat,Lon (AQUA) SZA (AQUA ) Date (NOAA-19) Time (NOAA-19) Lat,Lon (NOAA-19) SZA (NOAA-19 ) Distance(km) Time Diff (sec)
1 03/17/2018 07:19:56 -80.84,-148.77 95.63 03/17/2018 07:19:18 -80.85,-148.72 95.61 1.98 38
2 03/17/2018 08:09:23 80.86, 18.56 84.41 03/17/2018 08:10:22 80.86, 18.68 84.37 2.26 59
3 03/19/2018 12:53:40 80.85, -52.31 83.49 03/19/2018 12:53:01 80.85, -52.21 83.51 1.86 39
4 03/19/2018 13:43:07 -80.85, 115.33 96.53 03/19/2018 13:43:57 -80.86, 115.23 96.53 2.04 50
5 03/21/2018 18:27:24 -80.86, 44.09 97.38 03/21/2018 18:26:35 -80.85, 44.20 97.38 2.53 49
6 03/21/2018 19:16:50 80.86,-148.26 82.61 03/21/2018 19:17:39 80.85,-148.17 82.58 1.71 49
7 03/24/2018 00:01:07 80.85, 140.79 81.71 03/24/2018 00:00:18 80.85, 140.87 81.72 1.55 49
8 03/24/2018 00:50:34 -80.85, -51.56 98.31 03/24/2018 00:51:13 -80.85, -51.52 98.33 0.91 39
9 03/26/2018 05:34:51 -80.84,-122.55 99.20 03/26/2018 05:33:52 -80.85,-122.57 99.17 0.44 59
10 03/26/2018 06:24:17 80.84, 45.10 80.79 03/26/2018 06:24:56 80.86, 45.21 80.77 2.51 39
11 03/28/2018 11:08:34 80.84, -25.94 79.91 03/28/2018 11:07:35 80.85, -25.81 79.93 2.37 59
12 03/28/2018 11:58:01 -80.84, 141.71 100.11 03/28/2018 11:58:30 -80.85, 141.68 100.11 1.51 29
13 03/30/2018 16:42:18 -80.84, 70.62 100.97 03/30/2018 16:41:09 -80.84, 70.60 100.94 0.53 69




NCC Satellite Simultaneous Nadir Overpasses (SNOs) Prediction Service
